Weather in Marmyzhi

Russia / Kursk Oblast     51°49′23″N   37°36′05″E
temp.,
°C
wind,
m/s
gust,
m/s
humid.,
%
clouds,
%
prec.,
mm/h
press.,
hPa
HPBL,
m
7 may, fri
fri700:00+8nnw4794100 4.6 1011488
03:00+8nw2488100 8.3 1012297
06:00+7w36955 0.0 1013257
09:00+11nw35625 0.0 1014855
12:00+14wnw33425 0.0 10151800
15:00+15sw23375 0.0 10152126
18:00+14s2350100 0.0 1014662
21:00+11se4858100 0.0 1014165
8 may, sat
sat800:00+9sse51268100 0.0 1014245
03:00+10sse71765100 0.0 1012566
06:00+9sse91879100 0.7 1010696
09:00+10s81786100 1.3 1009808
12:00+11s91690100 3.3 1007929
15:00+11ssw71294100 7.8 1007672
18:00+11wsw5985100 0.8 1008879
21:00+8w51189100 0.9 1010582
9 may, sun
sun900:00+6wnw51190100 0.0 1012659
03:00+5wnw41083100 0.0 1016621
06:00+5nw6990100 0.0 1016667
09:00+7nnw71167100 0.0 1018905
12:00+10nnw7953100 0.0 10191686
15:00+11nnw8952100 0.0 10201915
18:00+10nnw696171 0.0 10221522
21:00+5n411750 0.0 1025326
10 may, mon
mon1000:00+3nnw410810 0.0 1026208
03:00+3n513810 0.0 1027278
06:00+4n5147923 0.0 1029381
09:00+10nne813565 0.0 10281179
12:00+13ne811495 0.0 10281534
15:00+14ne911485 0.0 10271415
18:00+13ne71160100 0.0 10271101
21:00+8nne410774 0.0 1030189
11 may, tue
tue1100:00+9ne513715 0.0 1027416
03:00+7ne614755 0.0 1027366
06:00+7ne615765 0.0 1027393
09:00+12ne81265100 0.0 1027571
12:00+16ene81064100 0.0 1025906
15:00+18ene8106376 0.0 10241409
18:00+16ene7107793 0.5 1025735
21:00+14nne51385100 0.5 1023417